This is the latest recevied weather packets stored in our database for station/object DL3TR-13. If no packets are shown the sender has not sent any weather packets the latest 10 day(s).
| Time | Temp. | Humidity | Pressure | Rain* | Wind** | Luminosity | Snow |
|---|---|---|---|---|---|---|---|
| 1777738391 | 23.33° C | 32% | 1016.1 hPa | 0 mm | - | 315 W/m² | - |
| 1777737791 | 23.33° C | 35% | 1016.2 hPa | 0 mm | - | 304 W/m² | - |
| 1777737191 | 23.33° C | 31% | 1016.3 hPa | 0 mm | - | 311 W/m² | - |
| 1777736590 | 23.33° C | 33% | 1016.4 hPa | 0 mm | - | 348 W/m² | - |
| 1777735991 | 23.89° C | 32% | 1016.6 hPa | 0 mm | - | 383 W/m² | - |
| 1777735391 | 23.33° C | 32% | 1016.7 hPa | 0 mm | - | 401 W/m² | - |
| 1777734790 | 23.33° C | 32% | 1016.8 hPa | 0 mm | - | 476 W/m² | - |
| 1777734191 | 23.33° C | 31% | 1016.8 hPa | 0 mm | - | 501 W/m² | - |
| 1777733591 | 23.89° C | 31% | 1017 hPa | 0 mm | - | 547 W/m² | - |
| 1777732991 | 23.33° C | 32% | 1017.2 hPa | 0 mm | - | 555 W/m² | - |
| 1777732391 | 24.44° C | 30% | 1017.3 hPa | 0 mm | - | 612 W/m² | - |
| 1777731191 | 23.89° C | 33% | 1017.4 hPa | 0 mm | - | 585 W/m² | - |
| 1777730591 | 23.89° C | 34% | 1017.6 hPa | 0 mm | - | 631 W/m² | - |
| 1777729991 | 23.33° C | 34% | 1017.6 hPa | 0 mm | - | 642 W/m² | - |
| 1777729391 | 23.89° C | 33% | 1017.6 hPa | 0 mm | - | 696 W/m² | - |
| 1777728791 | 23.33° C | 32% | 1017.8 hPa | 0 mm | - | 705 W/m² | - |
| 1777728191 | 23.33° C | 33% | 1018 hPa | 0 mm | - | 715 W/m² | - |
| 1777727591 | 23.33° C | 35% | 1018 hPa | 0 mm | - | 724 W/m² | - |
| 1777726991 | 23.33° C | 34% | 1018.2 hPa | 0 mm | - | 740 W/m² | - |
| 1777726391 | 23.33° C | 35% | 1018.3 hPa | 0 mm | - | 668 W/m² | - |
| 1777725791 | 23.89° C | 43% | 1018.6 hPa | 0 mm | - | 705 W/m² | - |
| 1777725191 | 23.33° C | 39% | 1018.8 hPa | 0 mm | - | 714 W/m² | - |
| 1777724591 | 23.33° C | 42% | 1018.9 hPa | 0 mm | - | 731 W/m² | - |
| 1777723991 | 23.33° C | 43% | 1019.1 hPa | 0 mm | - | 788 W/m² | - |
| 1777723391 | 23.33° C | 41% | 1019.2 hPa | 0 mm | - | 751 W/m² | - |
* Rain latest hour (hover to see other rain measurements)
** Current wind speed in m/s (hover to see current wind gust speed)